Change the Weather History Date:

Wednesday, October 24, 2012

  Actual Average Record
Temperature  
Mean Temperature 63 °F 54 °F  
Max Temperature 71 °F 64 °F 81 °F (2001)
Min Temperature 54 °F 43 °F 23 °F (1969)
Degree Days  
Heating Degree Days 2 12  
Month to date heating degree days 175 206  
Since 1 July heating degree days 223 268  
Cooling Degree Days 0 0  
Month to date cooling degree days 31 16  
Year to date cooling degree days 1218 1050  
Growing Degree Days 12 (Base 50)    
Moisture  
Dew Point 55 °F    
Average Humidity 77    
Maximum Humidity 90    
Minimum Humidity 63    
Precipitation  
Precipitation 0.00 in 0.10 in 1.69 in (1971)
Month to date precipitation 2.09 2.62  
Year to date precipitation 34.11 33.99  
Snow  
Snow 0.00 in 0.00 in T in (1960)
Month to date snowfall 0.0 0.0  
Since 1 July snowfall 0.0 0.0  
Since 1 September snowfall 0.0 0.0  
Snow Depth 0.00 in    
Sea Level Pressure  
Sea Level Pressure 30.12 in    
Wind  
Wind Speed 5 mph (East)    
Max Wind Speed 13 mph    
Max Gust Speed 16 mph    
Visibility 10 miles    
Events      
T = Trace of Precipitation, MM = Missing Value Source: NWS Daily Summary

Daily Weather History Graph

Daily Weather History Graph

Search for Another Location

Airport or City:

Trip Planner

Search our weather history database for the weather conditions in past years. The results will help you decide how hot, cold, wet, or windy it might be!

Date:

Astronomy

Oct. 24, 2012 Rise Set
Actual Time 7:18 AM EDT 6:06 PM EDT
Civil Twilight 6:50 AM EDT 6:33 PM EDT
Nautical Twilight 6:19 AM EDT 7:04 PM EDT
Astronomical Twilight 5:48 AM EDT 7:36 PM EDT
Moon 3:19 PM EDT (10/24) 2:12 AM EDT (10/24)
Length of Visible Light 11h 42m
Length of Day
10h 47m
Waxing Gibbous, 76% of the Moon is Illuminated
Oct 24
Waxing Gibbous
Oct 29
Full
Nov 6
Last Quarter
Nov 13
New
Nov 20
First Quarter

Hourly Weather History & Observations

Time (EDT) Temp. Dew Point Humidity Pressure Visibility Wind Dir Wind Speed Gust Speed Precip Events Conditions
12:54 AM 62.1 °F 52.0 °F 70% 30.09 in 10.0 mi SSW 4.6 mph - 0.01 in   Scattered Clouds
1:54 AM 62.1 °F 51.1 °F 67% 30.08 in 10.0 mi SSW 3.5 mph - N/A   Overcast
2:54 AM 61.0 °F 51.1 °F 70% 30.09 in 10.0 mi Calm Calm - N/A   Overcast
3:54 AM 60.1 °F 52.0 °F 75% 30.08 in 10.0 mi Calm Calm - N/A   Overcast
4:54 AM 57.9 °F 52.0 °F 81% 30.09 in 10.0 mi Calm Calm - N/A   Mostly Cloudy
5:54 AM 57.0 °F 53.1 °F 87% 30.10 in 10.0 mi Calm Calm - N/A   Overcast
6:54 AM 55.0 °F 52.0 °F 89% 30.11 in 10.0 mi Calm Calm - N/A   Mostly Cloudy
7:54 AM 55.9 °F 52.0 °F 87% 30.12 in 10.0 mi Calm Calm - N/A   Mostly Cloudy
8:54 AM 62.1 °F 54.0 °F 75% 30.13 in 10.0 mi Calm Calm - N/A   Mostly Cloudy
9:54 AM 64.9 °F 54.0 °F 68% 30.13 in 10.0 mi North 3.5 mph - N/A   Mostly Cloudy
10:54 AM 66.0 °F 54.0 °F 65% 30.13 in 10.0 mi Calm Calm - N/A   Scattered Clouds
11:54 AM 70.0 °F 57.0 °F 63% 30.12 in 10.0 mi ESE 3.5 mph - N/A   Clear
12:54 PM 70.0 °F 60.1 °F 71% 30.10 in 10.0 mi SSE 5.8 mph - N/A   Clear
1:54 PM 70.0 °F 60.1 °F 71% 30.10 in 10.0 mi SSE 4.6 mph - N/A   Clear
2:54 PM 70.0 °F 60.1 °F 71% 30.09 in 10.0 mi East 8.1 mph - N/A   Clear
3:54 PM 66.0 °F 57.9 °F 75% 30.10 in 9.0 mi ENE 11.5 mph - N/A   Clear
4:54 PM 63.0 °F 57.0 °F 81% 30.11 in 10.0 mi East 9.2 mph - N/A   Scattered Clouds
5:06 PM 62.6 °F 57.2 °F 82% 30.11 in 10.0 mi East 10.4 mph - N/A   Mostly Cloudy
5:39 PM 60.8 °F 57.2 °F 88% 30.12 in 10.0 mi East 8.1 mph - N/A   Overcast
5:54 PM 61.0 °F 57.0 °F 87% 30.12 in 10.0 mi East 9.2 mph - N/A   Overcast
6:54 PM 61.0 °F 57.0 °F 87% 30.14 in 6.0 mi East 8.1 mph - N/A   Overcast
7:54 PM 61.0 °F 57.0 °F 87% 30.15 in 10.0 mi ENE 8.1 mph - N/A   Overcast
8:54 PM 61.0 °F 55.9 °F 83% 30.17 in 10.0 mi ENE 6.9 mph - N/A   Overcast
9:49 PM 60.8 °F 55.4 °F 82% 30.17 in 10.0 mi East 6.9 mph - N/A   Overcast
9:54 PM 60.1 °F 55.9 °F 86% 30.17 in 10.0 mi East 6.9 mph - N/A   Overcast
10:54 PM 60.1 °F 55.9 °F 86% 30.18 in 10.0 mi East 8.1 mph - N/A   Overcast
11:54 PM 60.1 °F 55.9 °F 86% 30.18 in 10.0 mi East 6.9 mph - N/A   Overcast